Los Alamitos, CA

12:08 PM PDT on July 26, 2016 (GMT -0700)
Los Alamitos Army Air Field

Weather History for KSLI - June, 2013

Change the Weather History Date:

Friday, June 14, 2013

  Actual Average Record
Temperature  
Mean Temperature 66 °F -  
Max Temperature 72 °F 71 °F 89 °F (2001)
Min Temperature 60 °F 62 °F 57 °F (2008)
Growing Degree Days 16 (Base 50)    
Moisture  
Dew Point 59 °F    
Average Humidity 84    
Maximum Humidity 100    
Minimum Humidity 51    
Precipitation  
Precipitation 0.00 in - - ()
Sea Level Pressure  
Sea Level Pressure 29.91 in    
Wind  
Wind Speed 5 mph (SSE)    
Max Wind Speed 14 mph    
Max Gust Speed 17 mph    
Visibility 10 miles    
Events      
Averages and records for this station are not official NWS values.
T = Trace of Precipitation, MM = Missing Value Source: NWS Daily Summary

Daily Weather History Graph

Daily Weather History Graph

Search for Another Location

Airport or City:

Trip Planner

Search our weather history database for the weather conditions in past years. The results will help you decide how hot, cold, wet, or windy it might be!

Date:

Astronomy

Jun. 14, 2013 Rise Set
Actual Time 5:41 AM PDT 8:04 PM PDT
Civil Twilight 5:11 AM PDT 8:33 PM PDT
Nautical Twilight 4:36 AM PDT 9:09 PM PDT
Astronomical Twilight 3:57 AM PDT 9:48 PM PDT
Moon 11:06 AM PDT (6/14) 11:57 PM PDT (6/14)
Length of Visible Light 15h 21m
Length of Day
14h 23m
Waxing Crescent, 31% of the Moon is Illuminated
Jun 14
Waxing Crescent
Jun 16
First Quarter
Jun 23
Full
Jun 29
Last Quarter
Jul 8
New

Hourly Weather History & Observations

Time (PDT) Temp. Dew Point Humidity Pressure Visibility Wind Dir Wind Speed Gust Speed Precip Events Conditions
12:58 AM 60.6 °F 60.6 °F 100% 29.92 in 10.0 mi Calm Calm - N/A   Clear
1:20 AM 60.8 °F 60.8 °F 100% 29.91 in 10.0 mi SSE 1.2 mph - N/A   Scattered Clouds
1:25 AM 60.8 °F 60.8 °F 100% 29.91 in 10.0 mi SSE 2.3 mph - N/A   Mostly Cloudy
1:55 AM 62.6 °F 62.6 °F 100% 29.90 in 10.0 mi ESE 6.9 mph - N/A   Overcast
1:58 AM 61.9 °F 61.9 °F 100% 29.91 in 10.0 mi SE 4.6 mph - N/A   Overcast
2:45 AM 62.6 °F 62.6 °F 100% 29.90 in 10.0 mi East 4.6 mph - N/A   Overcast
2:58 AM 62.2 °F 62.2 °F 100% 29.91 in 10.0 mi ENE 3.5 mph - N/A   Overcast
3:45 AM 62.6 °F 62.6 °F 100% 29.90 in 10.0 mi SSE 4.6 mph - N/A   Overcast
3:58 AM 62.2 °F 62.2 °F 100% 29.91 in 10.0 mi SSE 2.3 mph - N/A   Overcast
4:48 AM 62.6 °F 62.6 °F 100% 29.90 in 10.0 mi ESE 4.6 mph - N/A   Overcast
4:58 AM 62.6 °F 62.6 °F 100% 29.92 in 10.0 mi East 4.6 mph - N/A   Overcast
5:58 AM 62.6 °F 62.4 °F 99% 29.92 in 10.0 mi SE 4.6 mph - N/A   Overcast
6:58 AM 62.8 °F 60.8 °F 93% 29.92 in 10.0 mi Calm Calm - N/A   Overcast
7:38 AM 64.4 °F 60.8 °F 88% 29.92 in 10.0 mi SSE 5.8 mph - N/A   Overcast
7:58 AM 63.9 °F 59.7 °F 86% 29.93 in 10.0 mi Variable 3.5 mph - N/A   Overcast
8:58 AM 64.8 °F 58.8 °F 81% 29.94 in 10.0 mi South 4.6 mph - N/A   Overcast
9:58 AM 65.7 °F 57.7 °F 76% 29.93 in 10.0 mi South 8.1 mph - N/A   Overcast
10:58 AM 67.6 °F 56.1 °F 67% 29.93 in 10.0 mi South 6.9 mph - N/A   Overcast
11:18 AM 68.0 °F 55.4 °F 64% 29.93 in 10.0 mi SW 8.1 mph - N/A   Overcast
11:58 AM 70.2 °F 54.1 °F 57% 29.93 in 10.0 mi SSW 9.2 mph - N/A   Mostly Cloudy
12:08 PM 69.8 °F 53.6 °F 56% 29.92 in 10.0 mi South 11.5 mph - N/A   Scattered Clouds
12:58 PM 71.4 °F 53.8 °F 54% 29.92 in 10.0 mi South 10.4 mph - N/A   Partly Cloudy
1:58 PM 71.6 °F 52.5 °F 51% 29.90 in 10.0 mi SW 13.8 mph 17.3 mph N/A   Partly Cloudy
2:58 PM 70.9 °F 52.5 °F 52% 29.89 in 10.0 mi SSW 12.7 mph - N/A   Partly Cloudy
3:58 PM 69.6 °F 52.9 °F 55% 29.89 in 10.0 mi South 11.5 mph 17.3 mph N/A   Partly Cloudy
4:58 PM 68.4 °F 52.9 °F 58% 29.87 in 10.0 mi SSW 11.5 mph - N/A   Partly Cloudy
5:58 PM 66.9 °F 53.6 °F 62% 29.87 in 10.0 mi SSW 8.1 mph - N/A   Partly Cloudy
6:58 PM 65.1 °F 54.5 °F 68% 29.88 in 10.0 mi South 6.9 mph - N/A   Partly Cloudy
7:58 PM 62.4 °F 58.3 °F 86% 29.89 in 10.0 mi SSW 6.9 mph - N/A   Partly Cloudy
8:58 PM 61.0 °F 60.4 °F 98% 29.90 in 10.0 mi South 3.5 mph - N/A   Partly Cloudy
9:58 PM 60.4 °F 60.1 °F 99% 29.92 in 9.0 mi South 4.6 mph - N/A   Partly Cloudy
10:58 PM 60.4 °F 59.7 °F 97% 29.92 in 10.0 mi Variable 4.6 mph - N/A   Clear
11:28 PM 60.8 °F 59.0 °F 94% 29.91 in 10.0 mi SE 5.8 mph - N/A   Mostly Cloudy
11:38 PM 60.8 °F 59.0 °F 94% 29.91 in 10.0 mi SE 6.9 mph - N/A   Overcast
11:58 PM 61.2 °F 59.5 °F 94% 29.92 in 10.0 mi South 5.8 mph - N/A   Overcast